User: anonymous   Login
Location: Unspecified
(0.0000°N, 0.0000°E)
Time: 06:15:51
(UTC+02:00)
Language:

Cosmos 1953 Rocket - Orbit

View from above orbital plane
View from above orbital plane
View from above satellite
View from above satellite

Ground track
Ground track

The orbit data is extracted from the following two-line orbital elements,

1 19211U 88050B   15142.17138406  .00000333  00000-0  38105-4 0  9998
2 19211 082.5268 190.3249 0023598 091.6832 321.1508 14.82744231454606
Epoch (UTC): 22 May 2015 04:06:47
Eccentricity: 0.0023598
inclination: 82.5268°
perigee height: 604 km
apogee height: 637 km
right ascension of ascending node: 190.3249°
argument of perigee: 91.6832°
revolutions per day: 14.82744231
mean anomaly at epoch: 321.1508°
orbit number at epoch: 45460

The dashed part of the orbit path shows where the satellite is in the earth's shadow,  

DLR